This is the latest recevied weather packets stored in our database for station/object IW4DZV-13. If no packets are shown the sender has not sent any weather packets the latest 10 day(s).
| Time | Temp. | Humidity | Pressure | Rain* | Wind** | Luminosity | Snow |
|---|---|---|---|---|---|---|---|
| 1777617020 | 13.33° C | 58% | 1026.8 hPa | 0 mm | - | 538 W/m² | - |
| 1777616115 | 12.22° C | 61% | 1026.7 hPa | 0 mm | - | 353 W/m² | - |
| 1777615211 | 11.11° C | 64% | 1026.7 hPa | 0 mm | - | 288 W/m² | - |
| 1777614310 | 10° C | 65% | 1026.6 hPa | 0 mm | - | 236 W/m² | - |
| 1777613402 | 8.89° C | 69% | 1026.3 hPa | 0 mm | - | 179 W/m² | - |
| 1777612560 | 7.78° C | 73% | 1026.2 hPa | 0 mm | - | 132 W/m² | - |
| 1777611655 | 7.22° C | 76% | 1026 hPa | 0 mm | - | 56 W/m² | - |
| 1777610753 | 6.67° C | 76% | 1025.8 hPa | 0 mm | - | 26 W/m² | - |
| 1777609852 | 6.67° C | 75% | 1025.8 hPa | 0 mm | - | 18 W/m² | - |
| 1777608956 | 6.67° C | 74% | 1025.7 hPa | 0 mm | - | 11 W/m² | - |
| 1777608054 | 6.67° C | 73% | 1025.7 hPa | 0 mm | - | 0 W/m² | - |
| 1777607148 | 6.67° C | 73% | 1025.4 hPa | 0 mm | - | 0 W/m² | - |
| 1777606250 | 6.67° C | 73% | 1025.4 hPa | 0 mm | - | 0 W/m² | - |
| 1777605349 | 6.67° C | 72% | 1025.4 hPa | 0 mm | - | 0 W/m² | - |
| 1777604451 | 6.67° C | 72% | 1025.6 hPa | 0 mm | - | 0 W/m² | - |
| 1777603549 | 6.67° C | 73% | 1025.7 hPa | 0 mm | - | 0 W/m² | - |
| 1777602643 | 6.67° C | 73% | 1025.6 hPa | 0 mm | - | 0 W/m² | - |
| 1777601752 | 7.22° C | 72% | 1025.6 hPa | 0 mm | - | 0 W/m² | - |
| 1777600860 | 7.22° C | 72% | 1025.5 hPa | 0 mm | - | 0 W/m² | - |
| 1777599943 | 7.22° C | 71% | 1025.6 hPa | 0 mm | - | 0 W/m² | - |
| 1777599040 | 7.22° C | 71% | 1025.5 hPa | 0 mm | - | 0 W/m² | - |
| 1777598142 | 7.22° C | 71% | 1025.5 hPa | 0 mm | - | 0 W/m² | - |
| 1777597239 | 7.22° C | 71% | 1025.6 hPa | 0 mm | - | 0 W/m² | - |
| 1777596341 | 7.22° C | 72% | 1025.7 hPa | 0 mm | - | 0 W/m² | - |
| 1777595442 | 7.22° C | 72% | 1025.8 hPa | 0 mm | - | 0 W/m² | - |
* Rain since midnight (hover to see other rain measurements)
** Current wind speed in m/s (hover to see current wind gust speed)